Вернуться в каталог

ELECTRON KICK STAGE R/B

АктивенVLEO
NORAD 68293·ROCKET BODY·🇺🇸 United States

Запущен Mar 20, 2026 с Rocket Lab Launch Complex 1

Loading…

Ближайшие Пролёты (ближайшие 24 часа)

TLE

СвежийSource: Space-Track

Эпоха: Sep 14, 2026, 22:01 UTC

1 68293U 26056C   26257.91772203  .00143675  00000-0  11436-2 0  9993
2 68293  50.2820 217.1385 0098017  32.1593 328.5311 15.63990015 27665

Отслеживайте ELECTRON KICK STAGE R/B в реальном времени с AllMySat

Download on the App Store